Volver al catálogo

FENGYUN 1C DEB

ActivoSSO
NORAD 30725·DEBRIS·🇨🇳 China

Lanzado May 10, 1999 desde Taiyuan Satellite Launch Center

Loading…

Próximos Pases (próximas 24 horas)

TLE

ActualizadoSource: Space-Track

Época: Sep 14, 2026, 03:34 UTC

1 30725U 99025ASK 26257.14870947  .00001669  00000-0  81767-3 0  9998
2 30725  98.9919 334.1071 0084719 328.0548  60.7507 14.17392594  2419

Sigue FENGYUN 1C DEB en tiempo real con AllMySat

Download on the App Store